Fort Eustis, VA

2:26 AM EST on December 06, 2016 (GMT -0500)
Felker Army Air Field

Weather History for KFAF - October, 2012

Change the Weather History Date:

Sunday, October 7, 2012

  Actual Average Record
Temperature  
Mean Temperature 56 °F -  
Max Temperature 61 °F 71 °F 89 °F (1997)
Min Temperature 52 °F 54 °F 44 °F (2004)
Degree Days  
Heating Degree Days 8    
Growing Degree Days 6 (Base 50)    
Moisture  
Dew Point 51 °F    
Average Humidity 89    
Maximum Humidity 95    
Minimum Humidity 53    
Precipitation  
Precipitation 0.91 in - - ()
Sea Level Pressure  
Sea Level Pressure 30.07 in    
Wind  
Wind Speed 8 mph (North)    
Max Wind Speed 15 mph    
Max Gust Speed 22 mph    
Visibility 8 miles    
Events Rain , Thunderstorm    
Averages and records for this station are not official NWS values.
T = Trace of Precipitation, MM = Missing Value Source: NWS Daily Summary

Daily Weather History Graph

Daily Weather History Graph

Search for Another Location

Airport or City:

Trip Planner

Search our weather history database for the weather conditions in past years. The results will help you decide how hot, cold, wet, or windy it might be!

Date:

Astronomy

Oct. 07, 2012 Rise Set
Actual Time 7:07 AM EDT 6:40 PM EDT
Civil Twilight 6:41 AM EDT 7:06 PM EDT
Nautical Twilight 6:11 AM EDT 7:36 PM EDT
Astronomical Twilight 5:41 AM EDT 8:06 PM EDT
Moon 11:55 PM EDT (10/7) 1:37 PM EDT (10/7)
Length of Visible Light 12h 24m
Length of Day
11h 32m
Waning Gibbous, 56% of the Moon is Illuminated
Oct 7
Waning Gibbous
Oct 8
Last Quarter
Oct 15
New
Oct 21
First Quarter
Oct 29
Full

Hourly Weather History & Observations

Time (EDT) Temp. Dew Point Humidity Pressure Visibility Wind Dir Wind Speed Gust Speed Precip Events Conditions
12:55 AM 61.9 °F 44.6 °F 53% 30.01 in 10.0 mi NNE 10.4 mph - N/A   Mostly Cloudy
1:55 AM 60.3 °F 44.4 °F 56% 30.00 in 10.0 mi Variable 6.9 mph - N/A   Partly Cloudy
2:55 AM 60.4 °F 45.0 °F 57% 30.01 in 10.0 mi North 5.8 mph - N/A   Overcast
3:55 AM 60.3 °F 46.0 °F 59% 30.01 in 10.0 mi North 4.6 mph - N/A   Mostly Cloudy
4:31 AM 60.8 °F 46.4 °F 59% 30.03 in 10.0 mi NNW 8.1 mph - N/A Rain Light Rain
4:55 AM 58.5 °F 49.8 °F 73% 30.05 in 5.0 mi NNW 10.4 mph - 0.04 in Rain Heavy Rain
5:55 AM 53.2 °F 50.5 °F 91% 30.05 in 10.0 mi NNE 9.2 mph - 0.07 in Rain Light Rain
6:28 AM 53.6 °F 51.8 °F 94% 30.05 in 10.0 mi NNE 8.1 mph - N/A   Mostly Cloudy
6:49 AM 53.6 °F 51.8 °F 94% 30.05 in 10.0 mi North 5.8 mph - N/A Rain Light Rain
6:55 AM 53.4 °F 51.1 °F 92% 30.05 in 10.0 mi North 8.1 mph - 0.00 in Rain Light Rain
7:04 AM 53.6 °F 51.8 °F 94% 30.05 in 10.0 mi Variable 5.8 mph - N/A   Overcast
7:18 AM 53.6 °F 51.8 °F 94% 30.05 in 10.0 mi NNE 5.8 mph - N/A   Light Drizzle
7:26 AM 53.6 °F 51.8 °F 94% 30.05 in 10.0 mi NNE 6.9 mph - N/A   Overcast
7:48 AM 53.6 °F 51.8 °F 94% 30.04 in 10.0 mi NNE 5.8 mph - N/A Rain Light Rain
7:55 AM 54.3 °F 51.8 °F 91% 30.05 in 10.0 mi North 5.8 mph - 0.00 in Rain Light Rain
8:07 AM 53.6 °F 51.8 °F 94% 30.06 in 10.0 mi North 6.9 mph - N/A   Overcast
8:41 AM 53.6 °F 51.8 °F 94% 30.06 in 10.0 mi North 8.1 mph - N/A Rain Light Rain
8:55 AM 54.3 °F 51.6 °F 91% 30.06 in 10.0 mi North 8.1 mph - 0.01 in Rain Light Rain
9:04 AM 53.6 °F 51.8 °F 94% 30.05 in 10.0 mi Variable 6.9 mph - N/A   Overcast
9:33 AM 55.4 °F 51.8 °F 88% 30.06 in 10.0 mi North 6.9 mph - N/A Rain Light Rain
9:52 AM 55.4 °F 51.8 °F 88% 30.08 in 10.0 mi North 8.1 mph - N/A Rain Light Rain
9:55 AM 55.0 °F 51.8 °F 89% 30.08 in 10.0 mi NNW 8.1 mph - 0.00 in Rain Light Rain
10:11 AM 55.4 °F 51.8 °F 88% 30.07 in 8.0 mi North 8.1 mph - N/A Rain Light Rain
10:12 AM 55.4 °F 51.8 °F 88% 30.07 in 7.0 mi Variable 5.8 mph - N/A Rain Rain
10:44 AM 55.4 °F 51.8 °F 88% 30.10 in 6.0 mi North 13.8 mph 18.4 mph N/A Rain , Thunderstorm Heavy Thunderstorms and Rain
10:51 AM 53.6 °F 51.8 °F 94% 30.13 in 2.5 mi NNW 10.4 mph 18.4 mph N/A Rain , Thunderstorm Heavy Thunderstorms and Rain
10:52 AM 53.6 °F 51.8 °F 94% 30.13 in 2.5 mi NW 13.8 mph 21.9 mph N/A Rain , Thunderstorm Heavy Thunderstorms and Rain
10:54 AM 53.6 °F 51.8 °F 94% 30.13 in 2.5 mi NNW 15.0 mph 21.9 mph N/A Rain , Thunderstorm Heavy Thunderstorms and Rain
10:55 AM 54.3 °F 52.0 °F 92% 30.13 in 2.5 mi NNW 12.7 mph 21.9 mph 0.13 in Rain , Thunderstorm Heavy Thunderstorms and Rain
10:57 AM 53.6 °F 51.8 °F 94% 30.11 in 2.0 mi NNW 12.7 mph 21.9 mph N/A Rain , Thunderstorm Heavy Thunderstorms and Rain
10:58 AM 53.6 °F 51.8 °F 94% 30.11 in 1.8 mi North 10.4 mph 21.9 mph N/A Rain , Thunderstorm Heavy Thunderstorms and Rain
11:02 AM 53.6 °F 51.8 °F 94% 30.11 in 1.5 mi NNW 8.1 mph 21.9 mph N/A Rain , Thunderstorm Heavy Thunderstorms and Rain
11:08 AM 53.6 °F 51.8 °F 94% 30.12 in 1.5 mi NNW 6.9 mph - N/A Rain , Thunderstorm Heavy Thunderstorms and Rain
11:10 AM 53.6 °F 51.8 °F 94% 30.12 in 1.8 mi NNW 8.1 mph - N/A Rain , Thunderstorm Heavy Thunderstorms and Rain
11:11 AM 53.6 °F 51.8 °F 94% 30.11 in 1.8 mi North 8.1 mph - N/A Rain , Thunderstorm Heavy Thunderstorms and Rain
11:12 AM 53.6 °F 51.8 °F 94% 30.11 in 2.0 mi North 9.2 mph - N/A Rain , Thunderstorm Heavy Thunderstorms and Rain
11:14 AM 53.6 °F 51.8 °F 94% 30.09 in 1.8 mi NNE 10.4 mph 17.3 mph N/A Rain Heavy Rain
11:17 AM 53.6 °F 51.8 °F 94% 30.10 in 2.0 mi North 10.4 mph 17.3 mph N/A Rain Heavy Rain
11:28 AM 53.6 °F 51.8 °F 94% 30.07 in 1.8 mi NNE 10.4 mph 16.1 mph N/A Rain , Thunderstorm Heavy Rain
11:42 AM 53.6 °F 51.8 °F 94% 30.09 in 2.0 mi North 4.6 mph - N/A Rain Heavy Rain
11:45 AM 53.6 °F 51.8 °F 94% 30.08 in 3.0 mi NE 5.8 mph - N/A Rain Heavy Rain
11:55 AM 52.9 °F 51.3 °F 94% 30.04 in 4.0 mi East 10.4 mph - 0.57 in Rain Rain
12:10 PM 53.6 °F 51.8 °F 94% 30.06 in 6.0 mi Variable 3.5 mph - N/A Rain Light Rain
12:11 PM 53.6 °F 51.8 °F 94% 30.06 in 7.0 mi NNW 4.6 mph - N/A Rain Light Rain
12:25 PM 53.6 °F 51.8 °F 94% 30.07 in 10.0 mi NNW 8.1 mph - N/A   Overcast
12:37 PM 53.6 °F 51.8 °F 94% 30.06 in 10.0 mi North 8.1 mph - N/A   Overcast
12:55 PM 55.0 °F 52.9 °F 92% 30.06 in 10.0 mi NNE 5.8 mph - 0.04 in   Overcast
1:55 PM 55.9 °F 53.2 °F 91% 30.04 in 10.0 mi Variable 4.6 mph - N/A   Overcast
2:55 PM 55.6 °F 52.3 °F 89% 30.02 in 10.0 mi NNE 8.1 mph - N/A   Overcast
3:06 PM 55.4 °F 51.8 °F 88% 30.02 in 10.0 mi North 9.2 mph - N/A   Overcast
3:22 PM 55.4 °F 51.8 °F 88% 30.02 in 10.0 mi NNE 5.8 mph - N/A   Light Drizzle
3:38 PM 55.4 °F 51.8 °F 88% 30.01 in 10.0 mi NNE 4.6 mph - N/A   Overcast
3:45 PM 55.4 °F 51.8 °F 88% 30.01 in 10.0 mi Variable 5.8 mph - N/A Rain Light Rain
3:55 PM 55.6 °F 52.5 °F 89% 30.02 in 10.0 mi North 6.9 mph - 0.00 in Rain Light Rain
4:02 PM 55.4 °F 51.8 °F 88% 30.01 in 10.0 mi NNE 6.9 mph - N/A   Overcast
4:19 PM 55.4 °F 51.8 °F 88% 30.01 in 10.0 mi NNE 3.5 mph - N/A   Light Drizzle
4:55 PM 54.9 °F 53.1 °F 94% 30.01 in 4.0 mi North 5.8 mph - 0.01 in Rain Light Rain
5:03 PM 55.4 °F 53.6 °F 94% 30.01 in 7.0 mi North 4.6 mph - N/A   Light Drizzle
5:17 PM 55.4 °F 53.6 °F 94% 30.02 in 9.0 mi NNW 3.5 mph - N/A   Light Drizzle
5:26 PM 55.4 °F 53.6 °F 94% 30.02 in 9.0 mi NNW 4.6 mph - N/A   Light Drizzle
5:55 PM 54.9 °F 53.4 °F 95% 30.03 in 9.0 mi Variable 6.9 mph - 0.01 in   Light Drizzle
6:55 PM 54.0 °F 52.2 °F 94% 30.07 in 6.0 mi NNW 6.9 mph - 0.01 in Rain Light Rain
6:59 PM 53.6 °F 51.8 °F 94% 30.07 in 5.0 mi NNW 10.4 mph - N/A Rain Light Rain
7:26 PM 53.6 °F 51.8 °F 94% 30.09 in 6.0 mi NNW 11.5 mph 17.3 mph N/A Rain Light Rain
7:55 PM 52.9 °F 50.9 °F 93% 30.11 in 7.0 mi NNW 13.8 mph 19.6 mph 0.01 in Rain Light Rain
8:54 PM 53.6 °F 50.0 °F 88% 30.13 in 10.0 mi NNW 11.5 mph 20.7 mph N/A   Overcast
8:55 PM 52.9 °F 50.2 °F 91% 30.13 in 10.0 mi North 12.7 mph 20.7 mph 0.01 in   Overcast
9:04 PM 53.6 °F 50.0 °F 88% 30.12 in 10.0 mi NNW 11.5 mph 19.6 mph N/A   Overcast
9:21 PM 53.6 °F 50.0 °F 88% 30.13 in 10.0 mi North 11.5 mph 20.7 mph N/A   Overcast
9:53 PM 53.6 °F 50.0 °F 88% 30.14 in 10.0 mi North 6.9 mph - N/A   Overcast
9:55 PM 52.7 °F 49.8 °F 90% 30.14 in 10.0 mi North 6.9 mph - N/A   Overcast
10:55 PM 52.7 °F 50.2 °F 91% 30.14 in 10.0 mi Variable 4.6 mph - N/A   Overcast
11:55 PM 52.9 °F 49.8 °F 89% 30.15 in 10.0 mi Variable 6.9 mph - N/A   Overcast